Location: Boursonne
(49.2024°N, 3.0468°E)
Time: 08:19:41
(UTC+00:00)

Cosmos 1933 Rocket - Pass Details

Date: 03 March 2021
Orbit: 607 x 629 km, 82.5° (Epoch: 11 April)

Event Time Altitude Azimuth Distance (km) Brightness Sun altitude
Rises 18:56:40 0° 183° (S) 2,861 6.9 -14.2°
Reaches altitude 10° 18:58:52 10° 182° (S) 1,964 6.1 -14.6°
Maximum altitude 19:03:12 75° 97° (E) 641 3.4 -15.3°
Drops below altitude 10° 19:07:37 10° 13° (NNE) 1,993 6.1 -16.0°
Sets 19:09:51 0° 12° (NNE) 2,908 7.0 -16.4°
